map of LTK home
Great Circle Mapper logo
LTK - Airport
Location
City:  Latakia, Syrian Arab Republic (Syria)
Name:Bassel al Assad International Airport
ICAO / IATA:OSLK / LTK

Details
Type:Airport (Aerodrome, Airfield)
Use:Public/Civil, Military, International (customs port of entry)
Latitude:3524'04"N (35.401094)
Longitude:3556'55"E (35.948681)
Datum:WGS 1984
Elevation:157 ft (48 m)
Runways:1
Longest:9175 × 148 ft (2797 × 45 m), paved

Time
Time Zone:UTC+2 (DST+3)
Local Time:

Weather
METAR:OSLK 300600Z 18004KT 9999 SCT030 29/21 Q1007
TAF:OSLK 300500Z 3006/3106 24010KT 9999 SCT030
TEMPO 3018 3106 12005KT

Related Locations
Nearby:
Farthest:NTAV: 11609 mi / 18682 km
Raivavae, Tubuai Islands, Austral Islands, PF

Find:

   beyond  
but within

Other Information
Maps:
NOTAMs:
Links:
Sources:

  
flag of Syrian Arab Republic (Syria)   

Sectional Chart

Flight Planning
at skyvector.com

Satellite Image

Google Maps Satellite View

 

Copyright © 2004-2014 Karl L. Swartz. All rights reserved.
The Great Circle Mapper name and logo are trademarks of the Great Circle Mapper.
All other trademarks mentioned herein belong to their respective owners.
Please see credits for attibutions and further copyright information.

  Follow gcmap on Facebook Follow gcmap on Twitter

hCard Microformat

Geo Microformat